Regional Weather Roundup
Issued by NWS Newport/Morehead, NC

Current Version | Previous Version | Graphics & Text | Print | Product List | Glossary On
Versions: 1 2 3 4 5 6 7 8 9 10 11 12 13 14 15 16 17 18 19 20 21 22 23 24 25 26 27 28 29 30 31 32 33 34 35 36 37 38 39 40 41 42 43 44 45 46 47 48 49 50
042 ASUS42 KMHX 251425 RWRMHX WEATHER ROUNDUP FOR EASTERN NORTH CAROLINA NATIONAL WEATHER SERVICE NEWPORT/MOREHEAD CITY NC 1000 AM EDT MON JUL 25 2016 NOTE: "FAIR" INDICATES FEW OR NO CLOUDS BELOW 12,000 FEET WITH NO SIGNIFICANT WEATHER AND/OR OBSTRUCTIONS TO VISIBILITY NCZ015>017-031-032-045>047-102-103-251500- NORTH COAST CITY SKY/WX TMP DP RH WIND PRES REMARKS EDENTON MOSUNNY 85 77 75 SW8 30.04F ELIZABETH CITY SUNNY 87 77 72 SW10 30.03F KITTY HAWK MOSUNNY 88 77 69 SW8 30.03F HX 101 MANTEO N/A 85 79 81 W9 30.04F $$ NCZ045>047-081-094-103-104-251500- CENTRAL COAST CITY SKY/WX TMP DP RH WIND PRES REMARKS FRISCO SUNNY 85 74 69 W9 30.06F $$ NCZ095-097-098-100-101-251500- SOUTHERN COAST CITY SKY/WX TMP DP RH WIND PRES REMARKS BEAUFORT MOSUNNY 86 76 71 SW10 30.07F CEDAR ISLAND NOT AVBL JACKSONVILLE MOSUNNY 86 73 65 W8 30.06F PINEY ISLAND NOT AVBL WILMINGTON SUNNY 87 75 67 SW12 30.08F $$ NCZ011>013-027>030-043-044-078>080-089-090>093-098-251500- COASTAL PLAIN CITY SKY/WX TMP DP RH WIND PRES REMARKS AHOSKIE SUNNY 85 79 82 CALM 30.03F CLINTON SUNNY 86 78 76 SW7 30.07F ELIZABETHTOWN SUNNY 85 75 71 S7 30.08F GOLDSBORO SUNNY 87 81 83 SW8 30.05S HX 103 GREENVILLE SUNNY 86 79 79 W7 30.06F HAVELOCK MOSUNNY 87 75 67 SW10 30.07F KENANSVILLE NOT AVBL KINSTON SUNNY 86 75 70 S7 30.07F NEW BERN SUNNY 87 75 67 W8 30.07F RICHLANDS SUNNY 88 76 67 SW7 30.07F ROCKY MOUNT SUNNY 85 78 80 SW6 30.05F WASHINGTON SUNNY 85 77 78 SW7 30.05F WHITEVILLE SUNNY 85 75 72 SW6 30.08F $$ AMZ130-135-150-152-154-156-158-170-250-252-270-ANZ085-086-088-633-658-670-251500- MARINE OBSERVATIONS STATION/POSITION TIME TEMP WIND PRES WAVE SWELL AIR SEA DIR/SP/G HT/PER HT/PER (UTC) (F) (DEG/KT/KT) (MB) (FT/S) (FT/S) CHESAPEAKE LIGHT NOT AVBL 64 E VA BEACH 1350 81 81 240/ 14/ 17 1016.5 3/ 4 2/ 9 DUCK 1400 83 60 220/ 10/ 13 1016.4 2 E DUCK 1411 70 N/A 1/ 8 OREGON INLET 1400 83 84 220/ 12/ 14 1017.3 13E OREGON INLT 1400 82 N/A 3/ 4 2/ 8 HATTERAS CG 1400 85 82 260/ 9/ 13 1017.6 DIAMOND BUOY 1350 84 85 260/ 10/ 12 1018.4 3/ 4 2/ 5 CAPE LOOKOUT 1400 85 260/ 11/ 13 1018.0 BEAUFORT LAB 1400 86 83 240/ 5/ 8 1017.6 30 SE NEW RVR IN 1408 84 85 250/ 10/ 14 1018.5 30 SE NEW RVR IN 1325 85 N/A 3/ 4 27 SE WRIGHTSVLE 1408 81 84 250/ 4/ 8 1017.9 5 SE WRIGHTSVLE 1408 84 83 230/ 8/ 10 1019.5 225 S CAPE HAT 1350 83 84 190/ 4/ 6 1020.2 2/ 8 2/ 8 41 SE CHARLESTON 1350 85 86 220/ 6/ 8 1019.0 2/ 8 2/ 8 $$

USA.gov is the U.S. government's official web portal to all federal, state and local government web resources and services.